Time,TemperatureF,DewpointF,PressureIn,WindDirection,WindDirectionDegrees,WindSpeedMPH,WindSpeedGustMPH,Humidity,HourlyPrecipIn,Conditions,Clouds,dailyrainin,SolarRadiationWatts/m^2,SoftwareType,DateUTC
2013-08-12 00:01:00,74.9,70.4,30.04,NW,323,0.0,0.0,86,0.00,,,0.00,0,Wunderground v.1.15,2013-08-12 04:01:00,
2013-08-12 00:06:00,74.9,70.8,30.04,NW,323,0.0,0.0,87,0.00,,,0.00,0,Wunderground v.1.15,2013-08-12 04:06:00,
2013-08-12 00:11:00,74.7,70.6,30.04,NW,323,0.0,0.0,87,0.00,,,0.00,0,Wunderground v.1.15,2013-08-12 04:11:00,
2013-08-12 00:16:00,74.6,70.5,30.04,NW,323,0.0,0.0,87,0.00,,,0.00,0,Wunderground v.1.15,2013-08-12 04:16:00,
2013-08-12 00:21:00,74.5,70.0,30.04,NW,323,0.0,0.0,86,0.00,,,0.00,0,Wunderground v.1.15,2013-08-12 04:21:00,
2013-08-12 00:26:00,74.5,70.0,30.04,NW,323,0.0,0.0,86,0.00,,,0.00,0,Wunderground v.1.15,2013-08-12 04:26:00,
2013-08-12 00:31:00,74.6,69.8,30.03,NW,323,0.0,0.0,85,0.00,,,0.00,0,Wunderground v.1.15,2013-08-12 04:31:00,
2013-08-12 00:36:00,74.5,69.3,30.04,NW,323,0.0,0.0,84,0.00,,,0.00,0,Wunderground v.1.15,2013-08-12 04:36:00,
2013-08-12 00:41:00,74.4,69.6,30.04,NW,323,0.0,0.0,85,0.00,,,0.00,0,Wunderground v.1.15,2013-08-12 04:41:00,
2013-08-12 00:46:00,74.3,69.5,30.03,NW,323,0.0,0.0,85,0.00,,,0.00,0,Wunderground v.1.15,2013-08-12 04:46:00,
2013-08-12 00:51:00,73.9,69.4,30.03,NW,323,0.0,0.0,86,0.00,,,0.00,0,Wunderground v.1.15,2013-08-12 04:51:00,
2013-08-12 00:56:00,73.6,69.2,30.03,NW,323,0.0,0.0,86,0.00,,,0.00,0,Wunderground v.1.15,2013-08-12 04:56:00,
2013-08-12 01:01:00,73.1,69.0,30.04,NW,323,0.0,0.0,87,0.00,,,0.00,0,Wunderground v.1.15,2013-08-12 05:01:00,
2013-08-12 01:06:00,73.1,69.3,30.04,NW,323,0.0,0.0,88,0.00,,,0.00,0,Wunderground v.1.15,2013-08-12 05:06:00,
2013-08-12 01:11:00,72.7,68.9,30.04,NW,323,0.0,0.0,88,0.00,,,0.00,0,Wunderground v.1.15,2013-08-12 05:11:00,
2013-08-12 01:16:00,72.7,68.9,30.04,NW,323,0.0,0.0,88,0.00,,,0.00,0,Wunderground v.1.15,2013-08-12 05:16:00,
2013-08-12 01:21:00,72.8,68.7,30.04,NW,323,0.0,0.0,87,0.00,,,0.00,0,Wunderground v.1.15,2013-08-12 05:21:00,
2013-08-12 01:26:00,72.6,68.8,30.04,NW,323,1.0,2.0,88,0.00,,,0.00,0,Wunderground v.1.15,2013-08-12 05:26:00,
2013-08-12 01:31:00,72.5,68.7,30.04,NW,323,1.0,3.0,88,0.00,,,0.00,0,Wunderground v.1.15,2013-08-12 05:31:00,
2013-08-12 01:36:00,72.4,68.6,30.04,NW,323,1.0,3.0,88,0.00,,,0.00,0,Wunderground v.1.15,2013-08-12 05:36:00,
2013-08-12 01:41:00,72.5,68.4,30.04,NW,323,0.0,2.0,87,0.00,,,0.00,0,Wunderground v.1.15,2013-08-12 05:41:00,
2013-08-12 01:46:00,72.4,68.3,30.04,NW,323,0.0,2.0,87,0.00,,,0.00,0,Wunderground v.1.15,2013-08-12 05:46:00,
2013-08-12 01:51:00,72.0,67.9,30.04,NW,323,0.0,0.0,87,0.00,,,0.00,0,Wunderground v.1.15,2013-08-12 05:51:00,
2013-08-12 01:56:00,71.8,68.1,30.04,NW,323,0.0,0.0,88,0.00,,,0.00,0,Wunderground v.1.15,2013-08-12 05:56:00,
2013-08-12 02:01:00,71.7,68.0,30.03,NW,323,0.0,0.0,88,0.00,,,0.00,0,Wunderground v.1.15,2013-08-12 06:01:00,
2013-08-12 02:06:00,71.6,67.9,30.04,NW,323,0.0,0.0,88,0.00,,,0.00,0,Wunderground v.1.15,2013-08-12 06:06:00,
2013-08-12 02:11:00,71.4,68.0,30.04,NW,323,0.0,0.0,89,0.00,,,0.00,0,Wunderground v.1.15,2013-08-12 06:11:00,
2013-08-12 02:16:00,71.1,68.0,30.04,NW,323,0.0,0.0,90,0.00,,,0.00,0,Wunderground v.1.15,2013-08-12 06:16:00,
2013-08-12 02:21:00,71.1,68.0,30.04,NW,323,0.0,0.0,90,0.00,,,0.00,0,Wunderground v.1.15,2013-08-12 06:21:00,
2013-08-12 02:26:00,71.2,68.1,30.04,NW,323,0.0,0.0,90,0.00,,,0.00,0,Wunderground v.1.15,2013-08-12 06:26:00,
2013-08-12 02:31:00,71.3,68.2,30.04,NW,323,0.0,0.0,90,0.00,,,0.00,0,Wunderground v.1.15,2013-08-12 06:31:00,
2013-08-12 02:36:00,71.3,67.9,30.04,NW,323,0.0,0.0,89,0.00,,,0.00,0,Wunderground v.1.15,2013-08-12 06:36:00,
2013-08-12 02:41:00,71.5,68.1,30.04,NW,323,0.0,0.0,89,0.00,,,0.00,0,Wunderground v.1.15,2013-08-12 06:41:00,
2013-08-12 02:46:00,71.6,67.9,30.03,NW,323,0.0,0.0,88,0.00,,,0.00,0,Wunderground v.1.15,2013-08-12 06:46:00,
2013-08-12 02:51:00,71.5,68.1,30.03,NW,323,0.0,1.0,89,0.00,,,0.00,0,Wunderground v.1.15,2013-08-12 06:51:00,
2013-08-12 02:56:00,71.1,68.0,30.03,NW,323,0.0,1.0,90,0.00,,,0.00,0,Wunderground v.1.15,2013-08-12 06:56:00,
2013-08-12 03:01:00,70.9,67.8,30.04,NW,323,0.0,0.0,90,0.00,,,0.00,0,Wunderground v.1.15,2013-08-12 07:01:00,
2013-08-12 03:06:00,70.9,67.8,30.03,NW,323,0.0,0.0,90,0.00,,,0.00,0,Wunderground v.1.15,2013-08-12 07:06:00,
2013-08-12 03:11:00,70.5,67.4,30.04,NW,323,0.0,0.0,90,0.00,,,0.00,0,Wunderground v.1.15,2013-08-12 07:11:00,
2013-08-12 03:16:00,70.3,67.5,30.03,NW,323,0.0,0.0,91,0.00,,,0.00,0,Wunderground v.1.15,2013-08-12 07:16:00,
2013-08-12 03:21:00,70.1,67.7,30.03,NW,323,0.0,0.0,92,0.00,,,0.00,0,Wunderground v.1.15,2013-08-12 07:21:00,
2013-08-12 03:26:00,70.0,67.6,30.03,NW,323,0.0,0.0,92,0.00,,,0.00,0,Wunderground v.1.15,2013-08-12 07:26:00,
2013-08-12 03:31:00,69.9,67.5,30.03,NW,323,0.0,0.0,92,0.00,,,0.00,0,Wunderground v.1.15,2013-08-12 07:31:00,
2013-08-12 03:36:00,69.7,67.3,30.03,NW,323,0.0,0.0,92,0.00,,,0.00,0,Wunderground v.1.15,2013-08-12 07:36:00,
2013-08-12 03:41:00,69.7,67.3,30.03,NW,323,0.0,0.0,92,0.00,,,0.00,0,Wunderground v.1.15,2013-08-12 07:41:00,
2013-08-12 03:46:00,69.6,67.2,30.03,NW,323,0.0,0.0,92,0.00,,,0.00,0,Wunderground v.1.15,2013-08-12 07:46:00,
2013-08-12 03:51:00,69.5,67.4,30.03,NW,323,0.0,0.0,93,0.00,,,0.00,0,Wunderground v.1.15,2013-08-12 07:51:00,
2013-08-12 03:56:00,69.4,67.3,30.03,NW,323,0.0,0.0,93,0.00,,,0.00,0,Wunderground v.1.15,2013-08-12 07:56:00,
2013-08-12 04:01:00,69.2,67.1,30.03,NW,323,0.0,0.0,93,0.00,,,0.00,0,Wunderground v.1.15,2013-08-12 08:01:00,
2013-08-12 04:06:00,69.3,67.2,30.03,NW,323,0.0,0.0,93,0.00,,,0.00,0,Wunderground v.1.15,2013-08-12 08:06:00,
2013-08-12 04:11:00,69.2,67.1,30.03,NW,323,0.0,0.0,93,0.00,,,0.00,0,Wunderground v.1.15,2013-08-12 08:11:00,
2013-08-12 04:16:00,68.9,66.8,30.03,NW,323,0.0,0.0,93,0.00,,,0.00,0,Wunderground v.1.15,2013-08-12 08:16:00,
2013-08-12 04:21:00,68.9,66.8,30.03,NW,323,0.0,0.0,93,0.00,,,0.00,0,Wunderground v.1.15,2013-08-12 08:21:00,
2013-08-12 04:26:00,69.0,66.9,30.03,NW,323,0.0,0.0,93,0.00,,,0.00,0,Wunderground v.1.15,2013-08-12 08:26:00,
2013-08-12 04:31:00,69.0,66.9,30.03,NW,323,0.0,0.0,93,0.00,,,0.00,0,Wunderground v.1.15,2013-08-12 08:31:00,
2013-08-12 04:36:00,69.1,66.7,30.03,NW,323,0.0,0.0,92,0.00,,,0.00,0,Wunderground v.1.15,2013-08-12 08:36:00,
2013-08-12 04:41:00,68.7,66.6,30.03,NW,323,0.0,0.0,93,0.00,,,0.00,0,Wunderground v.1.15,2013-08-12 08:41:00,
2013-08-12 04:46:00,68.6,66.5,30.03,NW,323,0.0,0.0,93,0.00,,,0.00,0,Wunderground v.1.15,2013-08-12 08:46:00,
2013-08-12 04:51:00,68.5,66.4,30.03,NW,323,0.0,0.0,93,0.00,,,0.00,0,Wunderground v.1.15,2013-08-12 08:51:00,
2013-08-12 04:56:00,68.2,66.4,30.03,NW,323,0.0,0.0,94,0.00,,,0.00,0,Wunderground v.1.15,2013-08-12 08:56:00,
2013-08-12 05:01:00,68.1,66.3,30.03,NW,323,0.0,0.0,94,0.00,,,0.00,0,Wunderground v.1.15,2013-08-12 09:01:00,
2013-08-12 05:06:00,68.0,66.2,30.03,NW,323,0.0,0.0,94,0.00,,,0.00,0,Wunderground v.1.15,2013-08-12 09:06:00,
2013-08-12 05:11:00,67.9,66.1,30.03,NW,323,0.0,0.0,94,0.00,,,0.00,0,Wunderground v.1.15,2013-08-12 09:11:00,
2013-08-12 05:16:00,67.8,66.0,30.03,NW,323,0.0,0.0,94,0.00,,,0.00,0,Wunderground v.1.15,2013-08-12 09:16:00,
2013-08-12 05:21:00,67.7,65.9,30.03,NW,323,0.0,0.0,94,0.00,,,0.00,0,Wunderground v.1.15,2013-08-12 09:21:00,
2013-08-12 05:26:00,67.8,66.0,30.02,NW,323,0.0,0.0,94,0.00,,,0.00,0,Wunderground v.1.15,2013-08-12 09:26:00,
2013-08-12 05:31:00,67.9,66.1,30.02,NW,323,0.0,0.0,94,0.00,,,0.00,0,Wunderground v.1.15,2013-08-12 09:31:00,
2013-08-12 05:36:00,67.8,66.0,30.02,NW,323,0.0,0.0,94,0.00,,,0.00,0,Wunderground v.1.15,2013-08-12 09:36:00,
2013-08-12 05:41:00,67.7,65.9,30.02,NW,323,0.0,0.0,94,0.00,,,0.00,0,Wunderground v.1.15,2013-08-12 09:41:00,
2013-08-12 05:47:00,67.5,66.0,30.02,NW,323,0.0,0.0,95,0.00,,,0.00,0,Wunderground v.1.15,2013-08-12 09:47:00,
2013-08-12 05:52:00,67.8,66.0,30.02,NW,323,0.0,0.0,94,0.00,,,0.00,0,Wunderground v.1.15,2013-08-12 09:52:00,
2013-08-12 05:57:00,67.8,66.0,30.02,NW,323,0.0,0.0,94,0.00,,,0.00,0,Wunderground v.1.15,2013-08-12 09:57:00,
2013-08-12 06:02:00,67.5,65.7,30.02,NW,323,0.0,0.0,94,0.00,,,0.00,0,Wunderground v.1.15,2013-08-12 10:02:00,
2013-08-12 06:07:00,67.5,65.7,30.02,NW,323,0.0,0.0,94,0.00,,,0.00,0,Wunderground v.1.15,2013-08-12 10:07:00,
2013-08-12 06:12:00,67.7,66.2,30.02,NW,323,0.0,0.0,95,0.00,,,0.00,0,Wunderground v.1.15,2013-08-12 10:12:00,
2013-08-12 06:17:00,68.0,66.2,30.02,NW,323,0.0,0.0,94,0.00,,,0.00,0,Wunderground v.1.15,2013-08-12 10:17:00,
2013-08-12 06:22:00,67.8,66.0,30.02,NW,323,0.0,0.0,94,0.00,,,0.00,0,Wunderground v.1.15,2013-08-12 10:22:00,
2013-08-12 06:27:00,68.0,66.2,30.02,NW,323,0.0,0.0,94,0.00,,,0.00,0,Wunderground v.1.15,2013-08-12 10:27:00,
2013-08-12 06:32:00,68.0,66.2,30.02,NW,323,0.0,0.0,94,0.00,,,0.00,0,Wunderground v.1.15,2013-08-12 10:32:00,
2013-08-12 06:37:00,68.1,66.3,30.02,NW,323,0.0,0.0,94,0.00,,,0.00,0,Wunderground v.1.15,2013-08-12 10:37:00,
2013-08-12 06:42:00,68.1,66.6,30.02,NW,323,0.0,0.0,95,0.00,,,0.00,0,Wunderground v.1.15,2013-08-12 10:42:00,
2013-08-12 06:47:00,68.3,66.5,30.02,NW,323,0.0,0.0,94,0.00,,,0.00,0,Wunderground v.1.15,2013-08-12 10:47:00,
2013-08-12 06:52:00,68.3,66.5,30.02,NW,323,0.0,0.0,94,0.00,,,0.00,5,Wunderground v.1.15,2013-08-12 10:52:00,
2013-08-12 06:57:00,68.4,66.6,30.02,NW,323,0.0,0.0,94,0.00,,,0.00,9,Wunderground v.1.15,2013-08-12 10:57:00,
2013-08-12 07:02:00,68.4,66.6,30.02,NW,323,0.0,0.0,94,0.00,,,0.00,14,Wunderground v.1.15,2013-08-12 11:02:00,
2013-08-12 07:07:00,68.5,66.7,30.02,NW,323,0.0,0.0,94,0.00,,,0.00,21,Wunderground v.1.15,2013-08-12 11:07:00,
2013-08-12 07:12:00,68.6,66.8,30.01,NW,318,0.0,1.0,94,0.00,,,0.00,28,Wunderground v.1.15,2013-08-12 11:12:00,
2013-08-12 07:17:00,68.7,66.9,30.02,NW,318,0.0,1.0,94,0.00,,,0.00,35,Wunderground v.1.15,2013-08-12 11:17:00,
2013-08-12 07:22:00,68.8,67.0,30.02,NW,318,0.0,0.0,94,0.00,,,0.00,44,Wunderground v.1.15,2013-08-12 11:22:00,
2013-08-12 07:27:00,69.1,67.3,30.02,NW,316,0.0,1.0,94,0.00,,,0.00,51,Wunderground v.1.15,2013-08-12 11:27:00,
2013-08-12 07:32:00,69.4,67.3,30.02,WNW,283,0.0,0.0,93,0.00,,,0.00,44,Wunderground v.1.15,2013-08-12 11:32:00,
2013-08-12 07:37:00,69.5,67.4,30.02,WNW,283,1.0,1.0,93,0.00,,,0.00,39,Wunderground v.1.15,2013-08-12 11:37:00,
2013-08-12 07:42:00,69.4,67.3,30.02,West,279,1.0,3.0,93,0.00,,,0.00,63,Wunderground v.1.15,2013-08-12 11:42:00,
2013-08-12 07:47:00,69.5,67.4,30.02,West,279,0.0,3.0,93,0.00,,,0.00,63,Wunderground v.1.15,2013-08-12 11:47:00,
2013-08-12 07:52:00,69.7,67.6,30.02,West,279,0.0,2.0,93,0.00,,,0.00,105,Wunderground v.1.15,2013-08-12 11:52:00,
2013-08-12 07:57:00,70.1,68.0,30.02,West,267,0.0,2.0,93,0.00,,,0.00,86,Wunderground v.1.15,2013-08-12 11:57:00,
2013-08-12 08:02:00,70.4,68.0,30.02,West,264,0.0,2.0,92,0.00,,,0.00,149,Wunderground v.1.15,2013-08-12 12:02:00,
2013-08-12 08:07:00,70.9,68.5,30.02,West,264,0.0,2.0,92,0.00,,,0.00,151,Wunderground v.1.15,2013-08-12 12:07:00,
2013-08-12 08:12:00,71.3,68.5,30.02,SW,218,1.0,4.0,91,0.00,,,0.00,162,Wunderground v.1.15,2013-08-12 12:12:00,
2013-08-12 08:17:00,71.5,68.4,30.02,SW,218,0.0,4.0,90,0.00,,,0.00,185,Wunderground v.1.15,2013-08-12 12:17:00,
2013-08-12 08:22:00,71.9,68.8,30.02,SW,218,0.0,1.0,90,0.00,,,0.00,178,Wunderground v.1.15,2013-08-12 12:22:00,
2013-08-12 08:27:00,72.4,69.0,30.02,SW,218,0.0,1.0,89,0.00,,,0.00,169,Wunderground v.1.15,2013-08-12 12:27:00,
2013-08-12 08:32:00,73.5,69.4,30.02,SW,218,0.0,0.0,87,0.00,,,0.00,211,Wunderground v.1.15,2013-08-12 12:32:00,
2013-08-12 08:37:00,73.3,69.5,30.01,SW,218,1.0,1.0,88,0.00,,,0.00,200,Wunderground v.1.15,2013-08-12 12:37:00,
2013-08-12 08:42:00,73.6,69.5,30.01,SW,218,0.0,1.0,87,0.00,,,0.00,265,Wunderground v.1.15,2013-08-12 12:42:00,
2013-08-12 08:47:00,74.1,70.0,30.01,SW,218,0.0,1.0,87,0.00,,,0.00,283,Wunderground v.1.15,2013-08-12 12:47:00,
2013-08-12 08:52:00,75.1,70.3,30.01,SW,218,0.0,1.0,85,0.00,,,0.00,313,Wunderground v.1.15,2013-08-12 12:52:00,
2013-08-12 08:57:00,75.8,70.6,30.01,SW,217,1.0,2.0,84,0.00,,,0.00,346,Wunderground v.1.15,2013-08-12 12:57:00,
2013-08-12 09:02:00,76.6,70.3,30.02,SW,218,0.0,1.0,81,0.00,,,0.00,325,Wunderground v.1.15,2013-08-12 13:02:00,
2013-08-12 09:07:00,77.1,69.7,30.02,SW,219,0.0,2.0,78,0.00,,,0.00,338,Wunderground v.1.15,2013-08-12 13:07:00,
2013-08-12 09:12:00,77.5,69.7,30.02,SSW,192,0.0,3.0,77,0.00,,,0.00,309,Wunderground v.1.15,2013-08-12 13:12:00,
2013-08-12 09:17:00,77.4,69.6,30.02,SW,224,3.0,5.0,77,0.00,,,0.00,264,Wunderground v.1.15,2013-08-12 13:17:00,
2013-08-12 09:22:00,77.4,69.2,30.01,South,191,2.0,5.0,76,0.00,,,0.00,343,Wunderground v.1.15,2013-08-12 13:22:00,
2013-08-12 09:27:00,77.8,69.2,30.02,SSW,207,2.0,7.0,75,0.00,,,0.00,418,Wunderground v.1.15,2013-08-12 13:27:00,
2013-08-12 09:32:00,78.0,69.8,30.01,SSW,211,1.0,6.0,76,0.00,,,0.00,443,Wunderground v.1.15,2013-08-12 13:32:00,
2013-08-12 09:37:00,77.8,69.2,30.01,SSW,212,5.0,7.0,75,0.00,,,0.00,471,Wunderground v.1.15,2013-08-12 13:37:00,
2013-08-12 09:42:00,78.4,70.2,30.01,SSW,202,6.0,6.0,76,0.00,,,0.00,501,Wunderground v.1.15,2013-08-12 13:42:00,
2013-08-12 09:47:00,78.5,71.1,30.01,SSW,212,6.0,7.0,78,0.00,,,0.00,471,Wunderground v.1.15,2013-08-12 13:47:00,
2013-08-12 09:52:00,78.3,70.9,30.00,South,175,3.0,7.0,78,0.00,,,0.00,408,Wunderground v.1.15,2013-08-12 13:52:00,
2013-08-12 09:57:00,78.8,71.4,30.01,SW,234,1.0,8.0,78,0.00,,,0.00,330,Wunderground v.1.15,2013-08-12 13:57:00,
2013-08-12 10:02:00,79.1,71.6,30.01,SW,222,6.0,9.0,78,0.00,,,0.00,306,Wunderground v.1.15,2013-08-12 14:02:00,
2013-08-12 10:07:00,78.9,71.1,30.01,SW,231,6.0,9.0,77,0.00,,,0.00,257,Wunderground v.1.15,2013-08-12 14:07:00,
2013-08-12 10:12:00,78.3,70.9,30.01,South,190,3.0,9.0,78,0.00,,,0.00,367,Wunderground v.1.15,2013-08-12 14:12:00,
2013-08-12 10:17:00,78.2,70.8,30.01,SSW,200,5.0,9.0,78,0.00,,,0.00,297,Wunderground v.1.15,2013-08-12 14:17:00,
2013-08-12 10:22:00,77.7,70.7,30.01,SSW,207,4.0,7.0,79,0.00,,,0.00,209,Wunderground v.1.15,2013-08-12 14:22:00,
2013-08-12 10:27:00,77.9,70.5,30.01,SSE,165,1.0,7.0,78,0.00,,,0.00,153,Wunderground v.1.15,2013-08-12 14:27:00,
2013-08-12 10:32:00,77.9,70.9,30.01,WSW,245,2.0,8.0,79,0.00,,,0.00,195,Wunderground v.1.15,2013-08-12 14:32:00,
2013-08-12 10:37:00,78.0,71.3,30.01,SSW,207,5.0,8.0,80,0.00,,,0.00,234,Wunderground v.1.15,2013-08-12 14:37:00,
2013-08-12 10:42:00,78.1,70.7,30.01,South,169,2.0,6.0,78,0.00,,,0.00,197,Wunderground v.1.15,2013-08-12 14:42:00,
2013-08-12 10:47:00,78.4,71.3,30.01,South,174,0.0,6.0,79,0.00,,,0.00,236,Wunderground v.1.15,2013-08-12 14:47:00,
2013-08-12 10:52:00,78.2,70.8,30.01,SW,222,5.0,6.0,78,0.00,,,0.00,204,Wunderground v.1.15,2013-08-12 14:52:00,
2013-08-12 10:57:00,78.0,71.3,30.01,SSW,212,3.0,6.0,80,0.00,,,0.00,167,Wunderground v.1.15,2013-08-12 14:57:00,
2013-08-12 11:02:00,77.9,71.2,30.01,SW,218,0.0,5.0,80,0.00,,,0.00,132,Wunderground v.1.15,2013-08-12 15:02:00,
2013-08-12 11:07:00,77.8,71.1,30.01,SSW,211,4.0,5.0,80,0.00,,,0.00,100,Wunderground v.1.15,2013-08-12 15:07:00,
2013-08-12 11:12:00,77.8,71.1,30.02,SW,217,2.0,5.0,80,0.00,,,0.00,153,Wunderground v.1.15,2013-08-12 15:12:00,
2013-08-12 11:17:00,77.8,71.5,30.02,SW,229,4.0,5.0,81,0.00,,,0.00,167,Wunderground v.1.15,2013-08-12 15:17:00,
2013-08-12 11:22:00,77.8,71.5,30.01,SW,217,2.0,5.0,81,0.00,,,0.00,183,Wunderground v.1.15,2013-08-12 15:22:00,
2013-08-12 11:27:00,77.8,71.5,30.01,SW,229,3.0,5.0,81,0.00,,,0.00,181,Wunderground v.1.15,2013-08-12 15:27:00,
2013-08-12 11:32:00,78.1,72.2,30.01,SSW,213,2.0,5.0,82,0.00,,,0.00,364,Wunderground v.1.15,2013-08-12 15:32:00,
2013-08-12 11:37:00,78.0,71.7,30.00,SSE,161,3.0,5.0,81,0.00,,,0.00,214,Wunderground v.1.15,2013-08-12 15:37:00,
2013-08-12 11:42:00,77.9,71.6,30.00,WSW,249,4.0,5.0,81,0.00,,,0.00,362,Wunderground v.1.15,2013-08-12 15:42:00,
2013-08-12 11:47:00,79.8,73.1,30.01,SW,228,6.0,6.0,80,0.00,,,0.00,826,Wunderground v.1.15,2013-08-12 15:47:00,
2013-08-12 11:52:00,80.5,72.6,30.01,West,259,6.0,7.0,77,0.00,,,0.00,810,Wunderground v.1.15,2013-08-12 15:52:00,
2013-08-12 11:57:00,80.5,72.6,30.00,SW,228,4.0,7.0,77,0.00,,,0.00,221,Wunderground v.1.15,2013-08-12 15:57:00,
2013-08-12 12:02:00,79.7,72.2,30.00,SW,232,2.0,8.0,78,0.00,,,0.00,142,Wunderground v.1.15,2013-08-12 16:02:00,
2013-08-12 12:07:00,79.7,72.6,30.00,SW,217,6.0,8.0,79,0.00,,,0.00,123,Wunderground v.1.15,2013-08-12 16:07:00,
2013-08-12 12:12:00,79.4,72.7,30.00,SW,223,7.0,9.0,80,0.00,,,0.00,79,Wunderground v.1.15,2013-08-12 16:12:00,
2013-08-12 12:17:00,79.0,72.3,30.00,WSW,240,5.0,9.0,80,0.00,,,0.00,54,Wunderground v.1.15,2013-08-12 16:17:00,
2013-08-12 12:22:00,78.7,72.7,30.00,SW,224,5.0,7.0,82,0.00,,,0.00,47,Wunderground v.1.15,2013-08-12 16:22:00,
2013-08-12 12:27:00,78.4,72.8,30.00,SW,232,2.0,7.0,83,0.00,,,0.00,37,Wunderground v.1.15,2013-08-12 16:27:00,
2013-08-12 12:32:00,77.9,73.0,30.00,WSW,241,2.0,5.0,85,0.00,,,0.00,26,Wunderground v.1.15,2013-08-12 16:32:00,
2013-08-12 12:38:00,77.4,72.9,29.99,WSW,242,2.0,5.0,86,0.00,,,0.00,18,Wunderground v.1.15,2013-08-12 16:38:00,
2013-08-12 12:43:00,76.9,72.7,29.99,SW,233,3.0,5.0,87,0.00,,,0.00,14,Wunderground v.1.15,2013-08-12 16:43:00,
2013-08-12 12:48:00,76.5,72.7,30.00,WSW,249,3.0,5.0,88,0.00,,,0.00,5,Wunderground v.1.15,2013-08-12 16:48:00,
2013-08-12 12:53:00,76.1,72.6,30.00,West,269,3.0,6.0,89,0.00,,,0.00,5,Wunderground v.1.15,2013-08-12 16:53:00,
2013-08-12 12:58:00,75.6,72.5,30.00,West,259,5.0,6.0,90,0.00,,,0.00,11,Wunderground v.1.15,2013-08-12 16:58:00,
2013-08-12 13:03:00,75.1,72.0,30.02,WSW,251,7.0,15.0,90,0.00,,,0.00,11,Wunderground v.1.15,2013-08-12 17:03:00,
2013-08-12 13:08:00,73.9,69.8,30.00,WSW,244,8.0,15.0,87,0.00,,,0.00,19,Wunderground v.1.15,2013-08-12 17:08:00,
2013-08-12 13:13:00,72.4,67.3,30.01,West,269,8.0,12.0,84,0.00,,,0.00,25,Wunderground v.1.15,2013-08-12 17:13:00,
2013-08-12 13:18:00,71.4,67.0,30.00,WSW,257,4.0,12.0,86,0.00,,,0.00,33,Wunderground v.1.15,2013-08-12 17:18:00,
2013-08-12 13:23:00,70.1,66.7,30.00,SW,236,5.0,8.0,89,0.00,,,0.00,51,Wunderground v.1.15,2013-08-12 17:23:00,
2013-08-12 13:28:00,69.2,66.1,30.00,WSW,240,7.0,9.0,90,0.00,,,0.00,51,Wunderground v.1.15,2013-08-12 17:28:00,
2013-08-12 13:33:00,68.6,65.9,30.01,WSW,247,4.0,10.0,91,0.00,,,0.00,37,Wunderground v.1.15,2013-08-12 17:33:00,
2013-08-12 13:38:00,68.0,65.6,30.00,NW,309,3.0,10.0,92,0.00,,,0.00,35,Wunderground v.1.15,2013-08-12 17:38:00,
2013-08-12 13:43:00,68.1,66.0,30.00,SW,221,3.0,8.0,93,0.00,,,0.00,35,Wunderground v.1.15,2013-08-12 17:43:00,
2013-08-12 13:48:00,67.9,66.1,30.00,SW,216,1.0,3.0,94,0.00,,,0.00,77,Wunderground v.1.15,2013-08-12 17:48:00,
2013-08-12 13:53:00,68.3,66.8,29.99,SSE,159,4.0,4.0,95,0.00,,,0.00,118,Wunderground v.1.15,2013-08-12 17:53:00,
2013-08-12 13:58:00,68.6,67.1,29.98,SSE,158,0.0,1.0,95,0.00,,,0.00,185,Wunderground v.1.15,2013-08-12 17:58:00,
2013-08-12 14:03:00,69.0,67.5,29.99,SSE,158,0.0,1.0,95,0.00,,,0.00,84,Wunderground v.1.15,2013-08-12 18:03:00,
2013-08-12 14:08:00,69.1,67.6,29.98,SSE,158,0.0,0.0,95,0.00,,,0.00,93,Wunderground v.1.15,2013-08-12 18:08:00,
2013-08-12 14:13:00,69.5,68.0,29.99,SSE,158,0.0,1.0,95,0.00,,,0.00,151,Wunderground v.1.15,2013-08-12 18:13:00,
2013-08-12 14:18:00,70.1,68.6,29.98,SSE,157,0.0,0.0,95,0.00,,,0.00,283,Wunderground v.1.15,2013-08-12 18:18:00,
2013-08-12 14:23:00,71.4,70.2,29.97,East,98,0.0,2.0,96,0.00,,,0.00,482,Wunderground v.1.15,2013-08-12 18:23:00,
2013-08-12 14:28:00,72.3,70.8,29.97,NNE,32,1.0,1.0,95,0.00,,,0.00,628,Wunderground v.1.15,2013-08-12 18:28:00,
2013-08-12 14:33:00,74.2,72.7,29.96,NE,36,3.0,3.0,95,0.00,,,0.00,935,Wunderground v.1.15,2013-08-12 18:33:00,
2013-08-12 14:38:00,75.5,73.3,29.96,NNE,26,3.0,3.0,93,0.00,,,0.00,951,Wunderground v.1.15,2013-08-12 18:38:00,
2013-08-12 14:43:00,76.3,73.1,29.96,North,9,0.0,5.0,90,0.00,,,0.00,657,Wunderground v.1.15,2013-08-12 18:43:00,
2013-08-12 14:48:00,76.0,71.8,29.95,NNE,30,1.0,2.0,87,0.00,,,0.00,427,Wunderground v.1.15,2013-08-12 18:48:00,
2013-08-12 14:53:00,77.0,73.2,29.95,East,96,2.0,2.0,88,0.00,,,0.00,895,Wunderground v.1.15,2013-08-12 18:53:00,
2013-08-12 14:58:00,77.7,73.2,29.95,West,259,0.0,1.0,86,0.00,,,0.00,872,Wunderground v.1.15,2013-08-12 18:58:00,
2013-08-12 15:03:00,78.2,73.0,29.95,SSW,202,0.0,4.0,84,0.00,,,0.00,865,Wunderground v.1.15,2013-08-12 19:03:00,
2013-08-12 15:08:00,78.2,73.7,29.94,South,173,2.0,3.0,86,0.00,,,0.00,888,Wunderground v.1.15,2013-08-12 19:08:00,
2013-08-12 15:13:00,78.9,73.7,29.94,SSE,165,0.0,5.0,84,0.00,,,0.00,853,Wunderground v.1.15,2013-08-12 19:13:00,
2013-08-12 15:18:00,78.3,73.1,29.94,SSE,148,1.0,2.0,84,0.00,,,0.00,726,Wunderground v.1.15,2013-08-12 19:18:00,
2013-08-12 15:23:00,79.8,73.4,29.94,WNW,289,1.0,4.0,81,0.00,,,0.00,923,Wunderground v.1.15,2013-08-12 19:23:00,
2013-08-12 15:28:00,81.3,73.8,29.94,SW,220,3.0,3.0,78,0.00,,,0.00,434,Wunderground v.1.15,2013-08-12 19:28:00,
2013-08-12 15:33:00,82.3,74.7,29.94,SSW,205,3.0,7.0,78,0.00,,,0.00,923,Wunderground v.1.15,2013-08-12 19:33:00,
2013-08-12 15:38:00,82.4,74.1,29.93,WSW,246,2.0,3.0,76,0.00,,,0.00,912,Wunderground v.1.15,2013-08-12 19:38:00,
2013-08-12 15:43:00,82.5,74.9,29.92,WSW,258,1.0,5.0,78,0.00,,,0.00,911,Wunderground v.1.15,2013-08-12 19:43:00,
2013-08-12 15:48:00,83.2,74.4,29.93,WSW,244,0.0,3.0,75,0.00,,,0.00,875,Wunderground v.1.15,2013-08-12 19:48:00,
2013-08-12 15:53:00,83.4,74.6,29.92,WSW,242,4.0,8.0,75,0.00,,,0.00,777,Wunderground v.1.15,2013-08-12 19:53:00,
2013-08-12 15:58:00,83.0,74.6,29.92,South,174,4.0,7.0,76,0.00,,,0.00,439,Wunderground v.1.15,2013-08-12 19:58:00,
2013-08-12 16:03:00,83.4,75.0,29.92,SW,230,4.0,7.0,76,0.00,,,0.00,1046,Wunderground v.1.15,2013-08-12 20:03:00,
2013-08-12 16:08:00,83.3,74.5,29.92,SW,231,6.0,7.0,75,0.00,,,0.00,394,Wunderground v.1.15,2013-08-12 20:08:00,
2013-08-12 16:13:00,83.4,74.6,29.91,SSW,199,4.0,8.0,75,0.00,,,0.00,796,Wunderground v.1.15,2013-08-12 20:13:00,
2013-08-12 16:18:00,83.8,74.6,29.92,SW,225,5.0,9.0,74,0.00,,,0.00,898,Wunderground v.1.15,2013-08-12 20:18:00,
2013-08-12 16:23:00,83.5,75.5,29.92,West,277,6.0,9.0,77,0.00,,,0.00,381,Wunderground v.1.15,2013-08-12 20:23:00,
2013-08-12 16:28:00,83.2,74.8,29.92,South,183,2.0,5.0,76,0.00,,,0.00,568,Wunderground v.1.15,2013-08-12 20:28:00,
2013-08-12 16:33:00,83.4,75.0,29.92,SW,214,7.0,9.0,76,0.00,,,0.00,858,Wunderground v.1.15,2013-08-12 20:33:00,
2013-08-12 16:38:00,83.6,74.8,29.91,SW,230,6.0,6.0,75,0.00,,,0.00,206,Wunderground v.1.15,2013-08-12 20:38:00,
2013-08-12 16:43:00,82.8,74.5,29.91,SW,219,4.0,10.0,76,0.00,,,0.00,244,Wunderground v.1.15,2013-08-12 20:43:00,
2013-08-12 16:48:00,82.0,74.1,29.91,SSE,155,3.0,7.0,77,0.00,,,0.00,271,Wunderground v.1.15,2013-08-12 20:48:00,
2013-08-12 16:53:00,81.2,74.4,29.91,SE,127,3.0,7.0,80,0.00,,,0.00,236,Wunderground v.1.15,2013-08-12 20:53:00,
2013-08-12 16:58:00,81.6,74.5,29.91,SW,221,6.0,7.0,79,0.00,,,0.00,301,Wunderground v.1.15,2013-08-12 20:58:00,
2013-08-12 17:03:00,82.0,74.8,29.91,SSW,198,6.0,8.0,79,0.00,,,0.00,213,Wunderground v.1.15,2013-08-12 21:03:00,
2013-08-12 17:08:00,81.6,74.5,29.90,WSW,239,9.0,9.0,79,0.00,,,0.00,172,Wunderground v.1.15,2013-08-12 21:08:00,
2013-08-12 17:13:00,81.4,74.6,29.90,SW,214,9.0,11.0,80,0.00,,,0.00,183,Wunderground v.1.15,2013-08-12 21:13:00,
2013-08-12 17:18:00,81.3,74.9,29.90,South,187,7.0,7.0,81,0.00,,,0.00,171,Wunderground v.1.15,2013-08-12 21:18:00,
2013-08-12 17:23:00,81.4,74.6,29.89,SSE,163,9.0,9.0,80,0.00,,,0.00,149,Wunderground v.1.15,2013-08-12 21:23:00,
2013-08-12 17:28:00,81.1,74.3,29.90,WSW,251,5.0,7.0,80,0.00,,,0.00,169,Wunderground v.1.15,2013-08-12 21:28:00,
2013-08-12 17:33:00,80.8,74.4,29.90,SW,225,1.0,9.0,81,0.00,,,0.00,167,Wunderground v.1.15,2013-08-12 21:33:00,
2013-08-12 17:38:00,81.0,74.6,29.90,WSW,245,2.0,4.0,81,0.00,,,0.00,100,Wunderground v.1.15,2013-08-12 21:38:00,
2013-08-12 17:43:00,80.9,74.5,29.89,SSW,203,3.0,7.0,81,0.00,,,0.00,97,Wunderground v.1.15,2013-08-12 21:43:00,
2013-08-12 17:48:00,80.6,74.6,29.89,SW,219,4.0,4.0,82,0.00,,,0.00,90,Wunderground v.1.15,2013-08-12 21:48:00,
2013-08-12 17:53:00,80.3,74.7,29.89,SSW,193,4.0,6.0,83,0.00,,,0.00,72,Wunderground v.1.15,2013-08-12 21:53:00,
2013-08-12 17:58:00,80.0,74.4,29.88,West,266,4.0,5.0,83,0.00,,,0.00,42,Wunderground v.1.15,2013-08-12 21:58:00,
2013-08-12 18:03:00,79.6,74.0,29.89,SW,215,4.0,9.0,83,0.00,,,0.00,35,Wunderground v.1.15,2013-08-12 22:03:00,
2013-08-12 18:08:00,79.5,73.9,29.88,South,191,3.0,4.0,83,0.00,,,0.00,47,Wunderground v.1.15,2013-08-12 22:08:00,
2013-08-12 18:13:00,79.3,73.7,29.87,SSE,154,5.0,8.0,83,0.00,,,0.00,42,Wunderground v.1.15,2013-08-12 22:13:00,
2013-08-12 18:18:00,79.1,73.8,29.87,SW,218,2.0,7.0,84,0.00,,,0.00,33,Wunderground v.1.15,2013-08-12 22:18:00,
2013-08-12 18:23:00,78.9,74.0,29.87,SW,225,6.0,9.0,85,0.00,,,0.00,25,Wunderground v.1.15,2013-08-12 22:23:00,
2013-08-12 18:28:00,78.8,73.6,29.88,WNW,282,3.0,5.0,84,0.00,,,0.00,11,Wunderground v.1.15,2013-08-12 22:28:00,
2013-08-12 18:33:00,78.5,74.0,29.89,North,5,3.0,6.0,86,0.00,,,0.00,7,Wunderground v.1.15,2013-08-12 22:33:00,
2013-08-12 18:38:00,77.5,73.3,29.88,NE,41,0.0,3.0,87,0.00,,,0.00,7,Wunderground v.1.15,2013-08-12 22:38:00,
2013-08-12 18:43:00,76.9,73.1,29.88,NE,41,0.0,3.0,88,0.00,,,0.00,7,Wunderground v.1.15,2013-08-12 22:43:00,
2013-08-12 18:48:00,76.6,73.1,29.88,NE,41,1.0,2.0,89,0.00,,,0.00,5,Wunderground v.1.15,2013-08-12 22:48:00,
2013-08-12 18:53:00,76.6,73.1,29.88,NE,41,0.0,2.0,89,0.00,,,0.00,0,Wunderground v.1.15,2013-08-12 22:53:00,
2013-08-12 18:58:00,76.8,73.6,29.88,NNE,20,5.0,5.0,90,0.00,,,0.00,0,Wunderground v.1.15,2013-08-12 22:58:00,
2013-08-12 19:03:00,76.7,73.9,29.89,NNE,24,2.0,6.0,91,0.00,,,0.00,0,Wunderground v.1.15,2013-08-12 23:03:00,
2013-08-12 19:08:00,76.3,73.5,29.88,SW,216,1.0,3.0,91,0.00,,,0.00,7,Wunderground v.1.15,2013-08-12 23:08:00,
2013-08-12 19:13:00,76.1,73.6,29.88,SSE,162,3.0,3.0,92,0.00,,,0.00,16,Wunderground v.1.15,2013-08-12 23:13:00,
2013-08-12 19:18:00,75.7,72.6,29.88,SE,128,3.0,3.0,90,0.00,,,0.00,12,Wunderground v.1.15,2013-08-12 23:18:00,
2013-08-12 19:23:00,75.0,72.2,29.89,East,95,1.0,4.0,91,0.00,,,0.00,11,Wunderground v.1.15,2013-08-12 23:23:00,
2013-08-12 19:28:00,74.6,71.8,29.89,ESE,111,3.0,5.0,91,0.00,,,0.00,11,Wunderground v.1.15,2013-08-12 23:28:00,
2013-08-12 19:33:00,73.9,71.1,29.89,ESE,104,4.0,7.0,91,0.00,,,0.00,19,Wunderground v.1.15,2013-08-12 23:33:00,
2013-08-12 19:38:00,73.2,70.4,29.89,ESE,107,2.0,3.0,91,0.00,,,0.00,9,Wunderground v.1.15,2013-08-12 23:38:00,
2013-08-12 19:43:00,72.9,70.4,29.89,East,97,2.0,5.0,92,0.00,,,0.00,9,Wunderground v.1.15,2013-08-12 23:43:00,
2013-08-12 19:49:00,72.6,70.1,29.89,ESE,115,3.0,5.0,92,0.00,,,0.00,14,Wunderground v.1.15,2013-08-12 23:49:00,
2013-08-12 19:53:00,72.3,69.8,29.90,ESE,121,1.0,5.0,92,0.00,,,0.00,11,Wunderground v.1.15,2013-08-12 23:53:00,
2013-08-12 19:58:00,72.3,70.2,29.90,ESE,113,0.0,2.0,93,0.00,,,0.00,7,Wunderground v.1.15,2013-08-12 23:58:00,
2013-08-12 20:04:00,72.4,70.3,29.90,ESE,113,0.0,2.0,93,0.00,,,0.00,5,Wunderground v.1.15,2013-08-13 00:04:00,
2013-08-12 20:09:00,72.5,70.4,29.90,SSE,162,1.0,2.0,93,0.00,,,0.00,5,Wunderground v.1.15,2013-08-13 00:09:00,
2013-08-12 20:14:00,72.7,70.6,29.90,SSE,164,0.0,3.0,93,0.00,,,0.00,0,Wunderground v.1.15,2013-08-13 00:14:00,
2013-08-12 20:19:00,72.9,70.8,29.89,SSE,164,0.0,0.0,93,0.00,,,0.00,0,Wunderground v.1.15,2013-08-13 00:19:00,
2013-08-12 20:24:00,73.1,71.0,29.89,SSE,164,1.0,1.0,93,0.00,,,0.00,0,Wunderground v.1.15,2013-08-13 00:24:00,
2013-08-12 20:29:00,73.4,71.3,29.89,WSW,256,4.0,4.0,93,0.00,,,0.00,0,Wunderground v.1.15,2013-08-13 00:29:00,
2013-08-12 20:34:00,73.5,71.4,29.89,West,271,2.0,6.0,93,0.00,,,0.00,0,Wunderground v.1.15,2013-08-13 00:34:00,
2013-08-12 20:39:00,73.6,71.4,29.89,WSW,243,2.0,5.0,93,0.00,,,0.00,0,Wunderground v.1.15,2013-08-13 00:39:00,
2013-08-12 20:44:00,73.6,71.4,29.89,West,271,6.0,8.0,93,0.00,,,0.00,0,Wunderground v.1.15,2013-08-13 00:44:00,
2013-08-12 20:49:00,73.3,70.2,29.89,WSW,252,6.0,6.0,90,0.00,,,0.00,0,Wunderground v.1.15,2013-08-13 00:49:00,
2013-08-12 20:54:00,73.1,70.0,29.89,West,268,5.0,9.0,90,0.00,,,0.00,0,Wunderground v.1.15,2013-08-13 00:54:00,
2013-08-12 20:59:00,73.1,70.3,29.89,WSW,244,4.0,7.0,91,0.00,,,0.00,0,Wunderground v.1.15,2013-08-13 00:59:00,
2013-08-12 21:04:00,72.9,70.1,29.88,West,261,7.0,8.0,91,0.00,,,0.00,0,Wunderground v.1.15,2013-08-13 01:04:00,
2013-08-12 21:09:00,72.6,69.8,29.88,WSW,248,4.0,6.0,91,0.00,,,0.00,0,Wunderground v.1.15,2013-08-13 01:09:00,
2013-08-12 21:14:00,72.3,69.5,29.89,West,269,5.0,7.0,91,0.00,,,0.00,0,Wunderground v.1.15,2013-08-13 01:14:00,
2013-08-12 21:19:00,72.1,69.3,29.89,West,259,3.0,5.0,91,0.00,,,0.00,0,Wunderground v.1.15,2013-08-13 01:19:00,
2013-08-12 21:24:00,71.8,69.0,29.89,WSW,252,4.0,8.0,91,0.00,,,0.00,0,Wunderground v.1.15,2013-08-13 01:24:00,
2013-08-12 21:29:00,71.6,68.8,29.89,West,271,5.0,7.0,91,0.00,,,0.00,0,Wunderground v.1.15,2013-08-13 01:29:00,
2013-08-12 21:34:00,71.2,68.8,29.88,WSW,252,6.0,8.0,92,0.00,,,0.00,0,Wunderground v.1.15,2013-08-13 01:34:00,
2013-08-12 21:39:00,71.0,68.6,29.88,SW,231,5.0,5.0,92,0.00,,,0.00,0,Wunderground v.1.15,2013-08-13 01:39:00,
2013-08-12 21:44:00,70.8,68.4,29.88,WSW,246,5.0,7.0,92,0.00,,,0.00,0,Wunderground v.1.15,2013-08-13 01:44:00,
2013-08-12 21:49:00,70.6,68.5,29.88,WSW,248,4.0,6.0,93,0.00,,,0.00,0,Wunderground v.1.15,2013-08-13 01:49:00,
2013-08-12 21:54:00,70.5,68.4,29.88,WSW,243,4.0,7.0,93,0.00,,,0.00,0,Wunderground v.1.15,2013-08-13 01:54:00,
2013-08-12 21:59:00,70.4,68.3,29.88,SW,236,2.0,5.0,93,0.00,,,0.00,0,Wunderground v.1.15,2013-08-13 01:59:00,
2013-08-12 22:04:00,70.3,68.2,29.88,SW,218,4.0,6.0,93,0.00,,,0.00,0,Wunderground v.1.15,2013-08-13 02:04:00,
2013-08-12 22:09:00,70.2,68.4,29.89,SW,215,6.0,9.0,94,0.00,,,0.00,0,Wunderground v.1.15,2013-08-13 02:09:00,
2013-08-12 22:14:00,70.1,68.3,29.89,SSW,201,2.0,9.0,94,0.00,,,0.00,0,Wunderground v.1.15,2013-08-13 02:14:00,
2013-08-12 22:19:00,70.1,68.3,29.89,SW,233,6.0,7.0,94,0.00,,,0.00,0,Wunderground v.1.15,2013-08-13 02:19:00,
2013-08-12 22:24:00,70.0,68.2,29.89,SW,227,3.0,8.0,94,0.00,,,0.00,0,Wunderground v.1.15,2013-08-13 02:24:00,
2013-08-12 22:29:00,69.9,68.1,29.89,West,265,4.0,6.0,94,0.00,,,0.00,0,Wunderground v.1.15,2013-08-13 02:29:00,
2013-08-12 22:34:00,69.8,68.0,29.89,SW,233,5.0,8.0,94,0.00,,,0.00,0,Wunderground v.1.15,2013-08-13 02:34:00,
2013-08-12 22:39:00,69.8,68.0,29.89,WSW,250,5.0,7.0,94,0.00,,,0.00,0,Wunderground v.1.15,2013-08-13 02:39:00,
2013-08-12 22:44:00,69.7,67.6,29.88,SW,216,3.0,7.0,93,0.00,,,0.00,0,Wunderground v.1.15,2013-08-13 02:44:00,
2013-08-12 22:49:00,69.7,67.6,29.88,WSW,244,5.0,6.0,93,0.00,,,0.00,0,Wunderground v.1.15,2013-08-13 02:49:00,
2013-08-12 22:54:00,69.7,67.6,29.88,WSW,248,3.0,6.0,93,0.00,,,0.00,0,Wunderground v.1.15,2013-08-13 02:54:00,
2013-08-12 22:59:00,69.7,67.6,29.88,SW,236,4.0,6.0,93,0.00,,,0.00,0,Wunderground v.1.15,2013-08-13 02:59:00,
2013-08-12 23:04:00,69.8,67.7,29.89,WSW,238,3.0,6.0,93,0.00,,,0.00,0,Wunderground v.1.15,2013-08-13 03:04:00,
2013-08-12 23:09:00,69.7,67.6,29.88,WSW,244,2.0,4.0,93,0.00,,,0.00,0,Wunderground v.1.15,2013-08-13 03:09:00,
2013-08-12 23:14:00,69.6,67.5,29.89,WSW,246,3.0,5.0,93,0.00,,,0.00,0,Wunderground v.1.15,2013-08-13 03:14:00,
2013-08-12 23:19:00,69.6,67.5,29.89,WSW,251,3.0,5.0,93,0.00,,,0.00,0,Wunderground v.1.15,2013-08-13 03:19:00,
2013-08-12 23:24:00,69.6,67.5,29.89,WSW,243,5.0,6.0,93,0.00,,,0.00,0,Wunderground v.1.15,2013-08-13 03:24:00,
2013-08-12 23:29:00,69.6,67.5,29.89,WSW,241,4.0,6.0,93,0.00,,,0.00,0,Wunderground v.1.15,2013-08-13 03:29:00,
2013-08-12 23:34:00,69.6,67.5,29.89,SW,233,3.0,6.0,93,0.00,,,0.00,0,Wunderground v.1.15,2013-08-13 03:34:00,
2013-08-12 23:39:00,69.6,67.5,29.89,SW,236,4.0,4.0,93,0.00,,,0.00,0,Wunderground v.1.15,2013-08-13 03:39:00,
2013-08-12 23:44:00,69.5,67.4,29.89,WSW,240,4.0,5.0,93,0.00,,,0.00,0,Wunderground v.1.15,2013-08-13 03:44:00,
2013-08-12 23:52:00,69.5,67.4,29.89,WSW,247,5.0,6.0,93,0.00,,,0.00,0,Wunderground v.1.15,2013-08-13 03:52:00,
2013-08-12 23:57:00,69.4,67.3,29.89,WSW,257,3.0,6.0,93,0.00,,,0.00,0,Wunderground v.1.15,2013-08-13 03:57:00,